Regional Weather Roundup
Issued by NWS

Home | Current Version | Previous Version | Graphics & Text | Print | Product List | Glossary On
Versions: 1 2 3 4 5 6 7 8 9 10 11 12 13 14 15 16 17 18 19 20 21 22 23 24 25 26 27 28 29 30 31 32 33 34 35 36 37 38 39 40 41 42 43 44 45 46 47 48 49 50
000
ASUS45 KCYS 210010
RWRWY

WYOMING REGIONAL WEATHER ROUNDUP
NATIONAL WEATHER SERVICE CHEYENNE WY
500 PM MST TUE FEB 20 2018

NOTE:  "FAIR" INDICATES FEW OR NO CLOUDS BELOW 12,000 FEET
WITH NO SIGNIFICANT WEATHER AND/OR OBSTRUCTIONS TO VISIBILITY.

WYZ001-210100-
YELLOWSTONE NATIONAL PARK

CITY           SKY/WX    TMP DP  RH WIND       PRES   REMARKS
LK YELLOWSTONE   N/A      1  -9  62 W7        29.85R WCI -12
6HR MIN TEMP: -19; 6HR MAX TEMP:   4; 6HR PCP:  0.01;

W YELLOWSTONE  NOT AVBL

$$
WYZ002>013-054>058-071-098>099-210100-
NORTHERN WYOMING

CITY           SKY/WX    TMP DP  RH WIND       PRES   REMARKS
JACKSON        CLOUDY     9  -2  61 S15       29.95R WCI  -8
CODY           FAIR       1  -7  68 NE5       29.99R WCI  -9
GREYBULL       FAIR       2  -7  66 CALM      30.10R
6HR MIN TEMP: -11; 6HR MAX TEMP:   5; 6HR PCP: TRACE;

WORLAND        FAIR       3 -10  54 CALM      30.07R
6HR MIN TEMP:  -8; 6HR MAX TEMP:   7; 6HR PCP:  0.02;

SHERIDAN       FAIR       4  -7  60 CALM      30.08R
6HR MIN TEMP:  -2; 6HR MAX TEMP:  14;

BUFFALO        FAIR       5 -10  50 S10       30.01R WCI -10
6HR MIN TEMP:   1; 6HR MAX TEMP:   7;

GILLETTE       FAIR       1 -10  60 SW7       30.07R WCI -12
6HR MIN TEMP:  -2; 6HR MAX TEMP:   5;

HULETT         FAIR       5  -8  56 MISG      30.07S
NEWCASTLE      FAIR       1  -9  60 N8        30.11S WCI -12

$$
WYZ014>020-022>026-101>103-210100-
CENTRAL WYOMING

CITY           SKY/WX    TMP DP  RH WIND       PRES   REMARKS
BIG PINEY      CLOUDY     8   2  76 CALM      29.93R HAZE
6HR MIN TEMP:   1; 6HR MAX TEMP:  11; 6HR PCP: TRACE;

PINEDALE       LGT SNOW   7   1  78 E3        29.93R
DUBOIS           N/A    N/A N/A N/A MISG        N/A
LANDER         FAIR       3  -4  72 CALM      29.94R
6HR MIN TEMP:  -3; 6HR MAX TEMP:   6;

RIVERTON       FAIR       2  -9  60 NE3       29.96R
6HR MIN TEMP:  -4; 6HR MAX TEMP:   2;

CASPER         FAIR       9   1  70 SW7       29.97R WCI  -2
6HR MIN TEMP:   4; 6HR MAX TEMP:  12;

DOUGLAS        FAIR      -3  -9  75 SE6       30.05R WCI -15
6HR MIN TEMP:  -9; 6HR MAX TEMP:   2;


$$
WYZ021-027>030-104>119-210100-
SOUTHERN WYOMING

CITY           SKY/WX    TMP DP  RH WIND       PRES   REMARKS
EVANSTON       FAIR      10   3  73 W13       29.95R WCI  -5
6HR MIN TEMP:   8; 6HR MAX TEMP:  13; 6HR PCP: TRACE;

FORT BRIDGER   FAIR      12   3  67 W18       29.98R WCI  -5
ROCK SPRINGS   FAIR      12   1  61 W12       29.96R WCI  -2
6HR MIN TEMP:   3; 6HR MAX TEMP:  14;

DIXON          FAIR      13  -1  55 W3        30.02S
RAWLINS        MOCLDY    10   0  63 W15       29.94R WCI  -7
6HR MIN TEMP:   2; 6HR MAX TEMP:  12;

SARATOGA       FAIR       9   0  66 W9        29.96R WCI  -5
LARAMIE        FAIR       7  -2  66 W7        29.89R WCI  -5
6HR MIN TEMP:  -6; 6HR MAX TEMP:  13; 6HR PCP: TRACE;

CHEYENNE       FAIR      13   6  74 S8        29.95R WCI   2
6HR MIN TEMP:   5; 6HR MAX TEMP:  22;

TORRINGTON     FAIR      13   0  56 NW3       30.08R
6HR MIN TEMP:   5; 6HR MAX TEMP:  14;

PINE BLUFFS    FAIR       3  -4  72 S6        30.05R WCI  -8

$$



USA.gov is the U.S. government's official web portal to all federal, state and local government web resources and services.